PDT,Max TemperatureF,Mean TemperatureF,Min TemperatureF,Max Dew PointF,MeanDew PointF,Min DewpointF,Max Humidity, Mean Humidity, Min Humidity, Max Sea Level PressureIn, Mean Sea Level PressureIn, Min Sea Level PressureIn, Max VisibilityMiles, Mean VisibilityMiles, Min VisibilityMiles, Max Wind SpeedMPH, Mean Wind SpeedMPH, Max Gust SpeedMPH,PrecipitationIn, CloudCover, Events, WindDirDegrees
2012-10-1,80,60,39,,,,,,,30.44,30.37,30.29,10.0,10.0,10.0,8,5,,0.00,0,,178
2012-10-2,82,62,41,,,,,,,30.29,30.22,30.14,10.0,10.0,10.0,14,8,24,0.00,0,,211
2012-10-3,78,58,37,,,,,,,30.24,30.20,30.15,10.0,10.0,9.0,17,5,22,0.00,0,,166
2012-10-4,77,56,35,,,,,,,30.24,30.21,30.17,10.0,10.0,9.0,24,8,36,0.00,0,,238
2012-10-5,71,50,30,,,,,,,30.28,30.23,30.19,10.0,10.0,10.0,14,3,26,0.00,0,,266
2012-10-6,62,45,28,,,,,,,30.26,30.21,30.15,10.0,10.0,8.0,8,4,,0.00,0,,91
2012-10-7,71,44,17,,,,,,,30.24,30.17,30.09,10.0,10.0,9.0,8,2,,0.00,0,,14
2012-10-8,73,52,32,,,,,,,30.14,30.08,30.02,10.0,9.5,2.0,10,4,,0.00,1,,193
2012-10-9,73,52,30,,,,,,,30.13,30.08,30.05,10.0,10.0,10.0,16,6,22,0.00,1,,162
2012-10-10,73,56,39,,,,,,,30.15,30.09,30.03,10.0,10.0,9.0,24,6,33,0.00,3,,170
2012-10-11,66,50,35,,,,,,,30.08,30.04,29.99,10.0,9.7,4.0,30,5,39,0.04,4,,166
2012-10-12,62,47,32,,,,,,,30.18,30.06,30.02,10.0,9.9,4.0,10,4,17,0.00,3,,242
2012-10-13,66,50,33,,,,,,,30.41,30.32,30.18,10.0,10.0,10.0,14,5,18,0.00,0,,204
2012-10-14,71,52,32,,,,,,,30.47,30.38,30.27,10.0,10.0,10.0,8,4,,0.00,0,,194
2012-10-15,73,54,35,,,,,,,30.29,30.23,30.16,10.0,10.0,8.0,12,6,16,0.00,1,,212
2012-10-16,75,57,39,,,,,,,30.23,30.12,30.01,10.0,9.4,5.0,30,10,44,0.00,0,,261
2012-10-17,62,43,24,,,,,,,30.34,30.28,30.24,10.0,10.0,9.0,9,3,,0.00,0,,99
2012-10-18,69,46,24,,,,,,,30.39,30.33,30.26,10.0,10.0,10.0,8,4,,0.00,0,,177
2012-10-19,75,54,33,,,,,,,30.27,30.18,30.06,10.0,10.0,10.0,13,8,,0.00,0,,205
2012-10-20,73,52,32,,,,,,,30.05,29.93,29.83,10.0,10.0,10.0,21,7,26,0.00,0,,224
2012-10-21,62,45,28,,,,,,,29.92,29.87,29.82,10.0,10.0,10.0,14,5,21,0.00,1,,225
2012-10-22,62,48,32,,,,,,,29.87,29.75,29.70,10.0,9.1,3.0,26,11,36,0.00,5,,187
2012-10-23,48,36,24,,,,,,,30.00,29.93,29.83,10.0,8.8,3.0,20,5,22,0.00,6,,351
2012-10-24,48,34,19,,,,,,,30.19,30.05,29.97,10.0,9.8,5.0,18,4,30,0.00,6,,250
2012-10-25,39,30,19,,,,,,,30.44,30.30,30.19,10.0,7.6,0.5,13,4,16,0.10,5,,316
2012-10-26,53,34,14,,,,,,,30.45,30.35,30.25,10.0,10.0,10.0,9,3,,0.00,0,,174
2012-10-27,62,43,24,,,,,,,30.28,30.25,30.20,10.0,10.0,10.0,12,4,,0.00,0,,195
2012-10-28,64,45,26,,,,,,,30.29,30.24,30.18,10.0,10.0,10.0,9,5,,0.00,0,,197
2012-10-29,69,50,32,,,,,,,30.34,30.28,30.24,10.0,10.0,10.0,10,5,,0.00,0,,208
2012-10-30,71,50,30,,,,,,,30.31,30.26,30.19,10.0,9.9,4.0,12,6,,0.00,0,,189
2012-10-31,68,50,32,,,,,,,30.23,30.14,30.07,10.0,10.0,10.0,22,9,30,0.00,0,,189